{"data":{"norad_id":67059,"epoch":"2026-09-20T15:13:40.253088Z","epoch_age_seconds":96975,"freshness":"FRESH","line1":"1 67059U 25295A   26263.63449367 -.00000112  00000+0  25748-4 0  9995","line2":"2 67059  50.0045  43.4526 0000729  85.1897 274.9058 13.29326004 38199","mean_motion":13.29326004,"eccentricity":7.29e-5,"inclination_deg":50.0045,"raan_deg":43.4526,"arg_perigee_deg":85.1897,"mean_anomaly_deg":274.9058,"bstar":2.5748e-5,"rev_number":3819,"period_min":108.32557218222,"perigee_km":1148.7578061182,"apogee_km":1149.8553073888,"semimajor_km":7527.4435567535,"source":"CELESTRAK","updated_at":"2026-09-21T09:00:16.408295Z"}}